This is the latest recevied weather packets stored in our database for station/object N3SBK. If no packets are shown the sender has not sent any weather packets the latest 10 day(s).
| Time | Temp. | Humidity | Pressure | Rain* | Wind** | Luminosity | Snow |
|---|---|---|---|---|---|---|---|
| 1777487590 | 16.11° C | 89% | 998.2 hPa | 0 mm | - | 135 W/m² | - |
| 1777487287 | 15.56° C | 90% | 998.2 hPa | 0 mm | - | 177 W/m² | - |
| 1777486984 | 15.56° C | 90% | 998.3 hPa | 0 mm | - | 172 W/m² | - |
| 1777486680 | 15.56° C | 91% | 998.3 hPa | 0 mm | - | 274 W/m² | - |
| 1777486378 | 15° C | 93% | 998.3 hPa | 1.78 mm | - | 249 W/m² | - |
| 1777486075 | 15° C | 93% | 998.4 hPa | 3.56 mm | - | 277 W/m² | - |
| 1777485771 | 14.44° C | 93% | 998.7 hPa | 1.78 mm | - | 170 W/m² | - |
| 1777485467 | 14.44° C | 92% | 998.8 hPa | 3.05 mm | - | 123 W/m² | - |
| 1777485163 | 15° C | 92% | 998.9 hPa | 4.32 mm | - | 64 W/m² | - |
| 1777484860 | 15° C | 92% | 999.1 hPa | 3.05 mm | - | 70 W/m² | - |
| 1777484557 | 15° C | 93% | 999.1 hPa | 3.05 mm | - | 115 W/m² | - |
| 1777484254 | 15° C | 93% | 999.4 hPa | 4.32 mm | - | 129 W/m² | - |
| 1777483950 | 15° C | 92% | 999.6 hPa | 4.32 mm | - | 87 W/m² | - |
| 1777483647 | 15° C | 92% | 999.5 hPa | 3.05 mm | - | 64 W/m² | - |
| 1777483342 | 15° C | 92% | 999.6 hPa | 3.56 mm | - | 61 W/m² | - |
| 1777483038 | 15° C | 92% | 999.9 hPa | 3.05 mm | - | 85 W/m² | - |
| 1777482735 | 15° C | 92% | 999.9 hPa | 1.27 mm | - | 87 W/m² | - |
| 1777482431 | 15° C | 91% | 1000 hPa | 3.05 mm | - | 119 W/m² | - |
| 1777482128 | 15° C | 92% | 999.8 hPa | 1.78 mm | - | 126 W/m² | - |
| 1777481826 | 15° C | 91% | 1000 hPa | 0 mm | - | 98 W/m² | - |
| 1777481523 | 15° C | 90% | 1000.2 hPa | 1.27 mm | - | 69 W/m² | - |
| 1777481219 | 15° C | 90% | 1000.3 hPa | 1.27 mm | - | 86 W/m² | - |
| 1777480916 | 15° C | 90% | 1000.2 hPa | 0 mm | - | 81 W/m² | - |
| 1777480612 | 15° C | 91% | 1000.2 hPa | 0 mm | - | 83 W/m² | - |
| 1777480310 | 15° C | 91% | 1000.3 hPa | 0 mm | - | 65 W/m² | - |
* Rain latest hour (hover to see other rain measurements)
** Current wind speed in m/s (hover to see current wind gust speed)